Theta_e
297 298 298 298 299 300 300 300 301 301 301 300 300 300 301 301 303 304 304 305 304 304 302 302 301 303 301 300 298 298 297 296 293 297 289 286 285 286 286 289 290 290 293
295 295 295 295 296 296 296 296 297 297 297 298 297 297 298 299 301 302 302 303 302 302 302 301 300 301 300 300 299 296 296 296 294 293 287 282 283 285 285 286 286 287 288
292 292 291 291 292 292 292 293 293 294 294 295 294 294 295 295 298 299 300 300 301 301 301 299 299 298 296 297 297 296 295 295 295 293 291 282 282 283 283 284 284 285 286
290 289 289 289 289 289 290 289 290 290 290 291 291 291 291 291 291 293 292 296 297 298 299 298 298 296 296 295 294 294 293 292 291 291 287 281 281 282 282 281 280 282 282
288 288 287 287 287 287 287 287 287 287 287 288 288 288 289 289 289 290 290 292 292 293 293 293 294 293 292 295 294 293 292 290 290 288 287 281 280 279 279 281 280 280 281
287 286 286 286 285 285 285 285 286 286 286 286 287 287 287 287 290 292 292 290 289 289 289 290 290 288 290 292 294 295 294 289 288 287 287 284 283 282 281 280 279 278 276
285 284 284 284 283 284 284 284 284 284 284 284 284 284 285 286 289 291 291 289 288 288 288 288 288 288 287 289 291 292 293 294 294 289 287 287 285 283 281 279 279 279 280
284 283 283 283 282 282 282 282 282 282 282 282 283 283 283 284 289 290 290 288 288 288 288 287 287 288 288 287 287 286 287 289 290 291 288 289 287 284 283 282 281 281 282
283 282 282 281 279 280 279 280 281 280 281 281 282 281 281 283 287 289 289 286 286 286 287 287 287 287 288 289 287 285 285 286 290 292 292 290 288 286 285 283 280 279 277
281 281 281 280 276 277 278 278 279 277 280 281 281 281 280 281 285 287 288 286 286 286 287 286 285 286 288 289 286 285 284 285 285 285 287 288 287 286 286 284 282 279 278
279 279 278 278 276 277 276 276 277 276 277 276 278 279 279 280 282 286 288 286 286 285 285 286 285 287 288 289 289 286 285 286 285 284 284 284 284 284 284 284 283 282 279
278 279 278 274 276 277 272 274 274 273 275 278 278 281 282 281 283 285 286 287 287 285 285 286 285 287 287 288 287 288 288 287 284 284 283 282 281 282 282 282 282 281 282
275 273 276 276 275 276 276 276 276 276 278 278 280 280 281 282 280 283 284 284 285 284 285 286 287 287 287 286 286 288 286 285 284 283 282 281 281 279 277 275 275 275 274
267 269 272 272 274 276 280 280 278 278 277 277 279 279 280 281 282 279 280 283 283 283 284 284 285 285 285 285 284 285 285 284 283 282 280 277 277 277 275 275 274 274 272
266 269 270 272 272 273 275 278 279 281 280 279 280 281 280 281 283 285 284 283 284 283 283 281 280 280 280 281 283 283 282 282 281 278 278 277 277 275 273 273 273 272 271
263 267 268 269 270 271 272 274 281 284 284 284 285 285 284 285 286 286 285 286 285 286 280 277 278 279 279 280 281 280 281 281 280 279 278 277 276 275 272 272 272 272 271
260 262 265 266 267 268 270 272 275 281 282 282 283 284 284 283 285 285 286 285 285 284 279 277 278 279 280 281 280 280 279 279 279 278 278 277 276 275 273 272 271 271 270
257 259 261 263 264 266 268 271 275 275 274 274 277 281 282 282 283 283 284 285 282 282 279 279 278 279 279 280 280 279 279 278 278 277 277 277 276 275 274 272 271 271 270
258 260 262 263 264 265 267 269 272 274 273 272 272 276 274 279 281 278 277 275 277 280 280 280 280 279 279 279 279 278 278 277 277 277 276 276 275 274 273 273 272 271 270
258 260 263 263 264 266 268 271 273 274 273 272 271 271 272 269 268 267 268 268 269 269 271 273 274 275 276 277 278 277 276 276 275 275 274 274 274 274 273 271 271 269 269
259 260 262 263 264 267 268 270 272 274 273 270 268 270 275 266 264 263 264 264 264 265 265 267 267 267 268 270 272 273 273 273 273 272 272 272 271 271 271 271 270 269 268
261 261 262 263 264 265 267 268 269 270 269 267 266 266 269 263 263 261 261 261 261 261 262 264 263 262 262 263 266 268 268 268 268 269 269 268 268 268 267 267 267 266 265
259 260 261 261 263 264 264 265 266 266 266 265 264 263 263 262 261 260 260 260 260 260 260 261 261 261 261 261 262 263 264 263 264 265 265 265 265 265 265 265 264 263 263
257 259 259 261 261 262 262 263 263 264 264 263 263 262 261 261 260 260 260 260 260 260 259 259 259 259 259 259 260 260 261 261 261 262 263 264 263 263 263 262 263 262 262
256 257 258 259 259 260 261 261 261 262 262 262 261 261 261 261 260 260 259 260 259 259 258 258 257 256 256 256 256 256 258 259 259 258 259 260 261 261 260 260 259 259 259
256 257 257 258 259 259 259 259 260 260 260 261 260 260 260 260 260 260 259 259 259 259 258 258 257 256 256 255 255 258 258 261 255 253 254 255 255 254 254 254 252 254 254
Wind_Speed
7 6 7 6 5 4 5 4 3 3 3 3 3 4 5 5 6 6 8 8 8 9 8 10 12 12 9 8 8 9 10 10 13 9 2 3 7 8 7 9 9 10 11
6 5 7 6 6 6 5 4 4 4 3 4 4 4 5 5 5 8 9 8 10 11 11 10 12 8 12 10 8 11 11 11 10 15 4 4 5 9 9 10 8 8 10
5 7 8 8 7 7 6 6 5 5 4 4 4 5 6 6 7 8 9 10 10 11 10 10 11 10 11 8 10 9 10 9 11 10 6 2 3 6 6 7 8 8 8
6 6 6 6 5 5 4 5 5 5 5 5 4 5 5 5 7 8 7 9 10 10 10 10 11 11 12 11 10 11 10 9 9 9 5 3 2 4 7 9 8 6 8
6 7 6 5 4 4 5 5 4 4 4 4 4 4 5 5 4 6 8 10 10 10 9 9 9 10 13 13 8 9 10 10 8 9 8 4 4 4 11 7 8 7 6
6 6 5 6 6 7 8 8 8 8 8 8 8 8 9 5 9 12 12 8 7 8 9 8 8 9 12 19 21 22 14 12 12 9 10 9 12 8 9 10 9 10 6
6 6 6 6 6 5 5 4 5 6 5 6 6 6 7 8 14 14 12 7 7 8 9 9 9 7 10 12 15 19 21 22 22 13 14 13 11 12 12 13 12 14 9
5 5 6 7 7 7 7 6 5 3 5 6 7 7 7 7 16 16 14 7 8 10 10 10 10 10 10 10 10 10 12 12 15 13 14 12 11 11 15 15 15 10 5
6 6 5 5 6 7 8 8 7 5 5 4 5 7 8 8 14 15 13 6 8 10 9 9 10 11 13 17 11 11 11 11 13 21 18 17 17 21 16 9 10 11 6
6 7 6 5 3 5 6 7 3 3 7 7 9 7 7 8 14 17 14 6 10 8 10 10 13 13 18 18 11 11 12 11 8 8 7 11 14 16 24 15 13 13 9
6 6 5 5 5 5 6 3 4 7 7 6 8 7 6 6 8 16 16 8 7 8 8 7 6 16 19 20 20 10 12 7 9 7 6 5 6 8 8 7 11 11 10
9 10 9 6 6 5 5 5 5 5 7 8 7 8 4 5 9 13 17 18 17 10 10 7 7 16 17 17 15 16 15 11 5 6 6 6 6 7 7 6 6 7 4
9 9 9 8 6 5 6 7 6 6 7 8 6 8 8 6 4 16 17 17 16 11 9 11 18 14 14 13 16 16 12 6 6 5 5 4 5 6 9 8 9 11 11
8 9 8 7 8 6 5 5 7 7 7 7 6 7 7 6 8 5 5 6 10 9 12 9 6 8 10 11 8 8 3 4 5 4 4 5 7 7 7 5 6 7 5
7 7 7 6 7 9 7 7 7 7 7 7 6 6 7 8 7 13 12 8 7 7 5 3 2 3 5 5 5 2 4 4 4 3 5 7 6 7 6 4 6 4 4
8 6 7 7 7 7 8 10 14 16 16 17 18 13 4 12 17 16 15 15 14 14 1 2 3 4 5 5 1 2 3 4 4 4 4 6 7 6 7 4 4 3 5
7 8 6 7 6 7 7 8 10 7 12 15 13 12 11 12 14 15 16 12 10 2 0 2 3 4 4 3 2 3 3 3 4 4 4 5 6 6 7 6 5 4 4
7 10 7 6 7 7 7 8 8 8 8 5 5 7 8 12 12 11 13 6 3 1 1 2 3 4 3 2 2 2 2 3 3 4 4 5 5 6 6 6 6 5 6
7 6 6 6 7 8 8 8 8 8 7 4 3 4 6 10 6 10 11 4 4 2 2 3 3 3 3 2 1 0 2 2 2 3 3 4 4 5 5 5 5 6 5
6 10 9 7 7 8 7 8 8 7 5 2 0 2 4 5 4 4 5 4 4 4 5 5 5 5 4 3 2 2 2 2 2 2 2 3 3 4 4 5 5 6 6
6 7 9 7 6 7 7 7 6 5 2 2 1 3 8 3 3 3 4 5 5 5 5 5 5 5 5 5 4 3 2 2 2 2 2 2 3 3 3 4 4 4 4
5 6 7 6 7 6 5 5 5 4 4 3 2 4 10 4 4 4 4 5 5 4 4 4 5 5 5 5 5 4 5 4 4 3 2 2 2 2 2 2 2 2 3
4 5 6 5 5 7 5 4 4 4 3 3 4 4 4 4 4 4 3 3 3 4 4 4 4 4 4 4 5 5 4 3 2 1 2 2 2 2 2 2 3 3 3
4 5 5 5 5 5 5 5 4 5 4 4 4 4 4 3 3 4 3 3 3 3 3 4 4 5 4 4 4 4 4 3 3 3 2 2 2 3 2 2 3 3 3
4 5 5 5 5 5 4 4 4 4 4 4 4 3 3 3 3 3 3 3 3 3 3 3 3 3 4 4 4 4 4 4 3 3 2 2 2 3 2 1 2 2 3
4 4 3 4 4 4 4 4 4 3 4 4 3 3 3 2 2 2 3 3 3 3 3 2 2 3 3 2 3 3 2 1 2 3 3 2 2 2 2 2 3 2 3
Wind_Direction
44 39 45 42 36 48 60 35 335 328 317 278 271 280 263 248 235 240 247 247 237 236 224 224 229 228 226 219 214 217 226 227 252 257 172 160 179 195 199 211 214 208 207
37 59 56 44 37 36 37 22 352 330 327 299 292 277 278 273 251 247 248 241 238 245 243 230 233 224 228 229 222 218 223 223 239 258 172 182 192 198 192 195 196 199 204
46 48 43 33 24 24 12 8 2 350 346 323 301 286 281 269 267 257 254 253 251 251 244 235 237 229 232 229 223 224 225 228 231 244 237 159 179 178 189 195 197 196 192
57 63 54 35 22 17 5 7 1 345 342 341 324 301 283 271 255 260 255 261 259 255 250 246 243 236 237 232 231 229 226 226 226 234 228 179 179 178 187 183 185 180 179
47 48 36 19 6 0 6 3 342 348 334 318 312 288 272 260 258 258 247 254 256 258 254 251 248 243 240 237 238 234 226 223 224 224 223 193 179 170 193 182 184 170 176
39 33 13 14 5 6 360 357 357 354 354 353 350 340 329 312 295 280 270 254 246 249 259 254 250 251 254 251 248 245 228 219 225 218 227 219 216 204 183 186 170 169 182
34 22 11 2 1 357 336 338 344 340 333 331 324 322 315 308 312 307 293 266 252 249 252 257 261 251 245 252 254 255 250 232 225 216 228 221 219 193 173 181 185 187 188
25 19 9 2 354 344 340 345 339 324 334 323 318 308 303 298 308 308 301 275 259 252 246 247 251 255 245 249 256 253 247 242 230 228 225 232 217 181 186 190 184 171 131
11 359 356 348 341 341 336 333 326 326 325 316 303 305 306 303 307 310 308 281 282 274 261 251 249 256 251 255 256 254 256 249 237 232 231 222 196 185 179 161 171 160 144
352 332 323 318 312 313 301 306 282 297 301 308 305 298 287 295 307 312 310 287 285 283 282 263 254 261 267 261 254 251 253 252 228 228 222 203 190 192 183 182 168 171 149
317 311 313 317 313 290 298 291 292 306 302 293 287 284 271 273 293 304 304 293 282 286 281 281 250 261 270 269 261 251 247 252 217 205 187 178 174 175 180 180 174 167 157
333 326 321 311 309 301 282 287 288 284 295 298 296 300 279 270 285 299 308 302 294 285 283 280 263 260 266 274 280 266 257 225 202 201 186 170 162 166 149 143 141 112 113
321 309 304 300 282 277 299 304 308 298 296 295 296 302 310 313 285 301 308 311 307 299 289 283 281 266 278 287 289 278 255 206 187 193 165 143 129 115 110 95 84 83 70
313 302 297 291 298 292 294 282 289 291 287 290 290 295 294 296 305 281 283 299 301 296 305 302 280 282 285 287 282 275 205 171 176 165 126 104 121 133 127 127 121 118 95
288 296 301 303 309 309 295 292 276 261 244 271 267 267 284 298 304 309 313 311 302 280 299 289 289 290 295 292 273 199 130 141 137 110 143 132 132 127 115 112 117 121 109
319 317 314 309 305 300 298 299 275 272 286 286 285 280 291 301 302 309 313 311 313 311 93 284 290 285 285 297 235 126 127 136 132 134 139 139 139 140 137 119 128 125 126
298 298 292 288 289 290 289 289 297 285 288 288 286 282 290 304 322 326 320 319 315 111 288 298 293 302 286 288 188 167 159 158 136 139 145 146 142 136 145 149 143 145 136
289 287 285 289 285 284 281 282 284 289 295 300 310 303 298 316 321 333 340 329 312 131 231 286 306 315 314 293 199 173 142 139 142 139 139 143 150 149 152 162 170 169 162
300 292 285 284 278 275 278 277 273 273 269 262 305 327 332 334 356 13 27 38 332 344 328 305 314 323 331 330 330 83 122 114 117 129 138 146 147 148 155 152 154 159 150
286 281 286 287 289 289 284 280 276 265 254 230 72 318 337 17 22 1 19 23 20 18 8 25 14 12 10 6 19 50 82 88 111 117 129 131 134 145 152 155 162 166 189
292 294 292 296 290 291 291 290 289 273 207 131 57 331 40 81 48 19 8 38 20 11 5 21 25 22 12 13 20 32 44 63 69 95 129 143 152 161 159 170 173 179 172
296 302 304 303 303 302 308 318 334 16 55 70 40 20 56 56 57 50 27 27 21 16 11 21 39 33 27 21 10 37 54 53 41 42 61 77 88 88 111 122 148 152 166
309 309 314 318 320 326 336 349 5 29 50 52 48 44 39 41 42 43 37 25 27 17 19 29 45 44 30 26 26 31 60 57 35 29 119 121 124 141 154 162 163 165 178
325 325 331 335 342 348 355 1 6 16 30 50 56 54 44 38 34 27 15 9 16 26 21 28 33 30 23 28 21 26 37 34 29 44 67 116 137 147 154 155 173 177 180
338 336 339 343 345 348 352 3 10 6 16 19 28 39 42 29 20 12 353 347 356 8 19 26 20 18 20 16 16 17 8 32 52 50 57 93 166 169 158 160 151 161 170
332 335 330 337 345 346 351 351 352 357 355 356 4 1 358 354 338 328 328 326 331 328 334 358 347 340 329 319 298 281 271 220 143 124 109 108 136 150 153 165 163 176 189